Погода в Мазаново

Россия / Амурская область     51°37′51″N   128°49′29″E
темп.,
°C
ветер,
м/с
пор.,
м/с
влажн.,
%
обл.,
%
осадки,
мм/ч
давл.,
гПа
погр.,
м
21 апреля, ср
ср2100:00+2юв22255 0.0 101510
03:000вюв25303 0.0 101582
06:00−1юв39365 0.0 1016194
09:00+8юв46315 0.0 1015460
12:00+15ю46235 0.0 10131109
15:00+19ю69230 0.0 10101393
18:00+19ю711253 0.0 10091207
21:00+15ю516341 0.0 1010534
22 апреля, чт
чт2200:00+13ю516395 0.0 1011433
03:00+12ю61639100 0.0 1010452
06:00+12ю6164445 0.0 1010485
09:00+17ю71434100 0.0 1009662
12:00+20ююз7113394 0.0 10101169
15:00+21юз31033100 0.1 10102032
18:00+16ссз61041100 0.0 1013796
21:00+9сз5867100 0.1 1018588
23 апреля, пт
пт2300:00+7ссз5868100 2.5 1022728
03:00+4сз4959100 3.0 1024597
06:00+2ссз4859100 0.0 1026449
09:00+4ссз5641100 0.1 1028842
12:00+7ссз5725100 0.0 10271421
15:00+8ссз681899 0.0 10271923
18:00+7ссз692022 0.0 10282163
21:00+2с611330 0.0 10301000
24 апреля, сб
сб2400:00+1ссз411400 0.0 1031684
03:00−1сз310480 0.0 1030329
06:00−1зсз311535 0.0 1030336
09:00+5сз6113072 0.0 10271479
12:00+8сз7112562 0.0 10252508
15:00+10сз71322100 0.0 10213380
18:00+9сз7132799 0.0 10202855
21:00+6ссз613395 0.0 10201495
25 апреля, вс
вс2500:00+4ссз613485 0.0 10211296
03:00+1с512645 0.0 1022946
06:000ссз412350 0.0 1023671
09:00+4ссз59280 0.0 10221568
12:00+8ссз47285 0.0 10211980
15:00+11сз472370 0.0 10182424
18:00+11сз352591 0.0 10162367
21:00+6з22395 0.0 101710